SCP
0 0 0 0 0 0 0 0 0 0 0 0 0 0 0 0 0 0 0 0 0 -0 -0 0 0 0 0 0 0 -0 -0 -0 0 0 0 0 -0 0 -0 -0 0 0 0 0 0 0 0 0 0 0 0 0 0 -0
0 0 0 0 0 0 0 0 0 0 0 0 0 0 0 0 0 0 0 0 0 0 0 0 0 0 0 0 0 0 -0 -0 -0 -0 0 0 0 0 -0 0 0 0 0 0 -0 0 -0 0 0 0 0 0 0 0
0 0 0 0 0 0 0 0 0 0 0 0 0 0 0 0 0 0 0 0 0 0 0 0 0 0 0 0 0 0 0 0 -0 -0 0 0 -0 -0 -0 -0 0 0 0 0 0 -0 -0 0 0 0 -0 0 0 0
0 0 0 0 0 0 0 -0 0 0 0 0 0 0 0 0 0 0 0 0 0 0 0 0 0 0 0 0 0 0 0 0 0 -0 0 0 -0 -0 -0 -0 -0 -0 0 0 0 -0 0 0 0 0 0 0 0 0
0 0 0 0 0 0 0 0 -0 0 0 0 0 0 0 0 0 0 0 0 0 0 0 0 0 0 0 0 0 0 0 0 0 0 0 0 0 0 0 0 -0 0 0 0 0 0 0 0 0 0 0 0 0 0
0 0 0 0 0 0 0 0 -0 0 0 0 0 0 0 0 0 0 0 0 0 0 0 0 0 0 0 0 0 0 0 0 0 0 0 0 0 0 0 0 0 0 0 0 0 0 0 0 -0 0 0 0 0 0
0 0 0 0 0 0 0 0 0 0 0 0 0 0 0 -0 0 0 0 0 0 0 0 0 0 0 0 0 0 0 0 0 0 0 0 0 0 0 0 0 0 0 0 0 0 0 0 0 0 0 0 0 0 0
0 0 0 0 0 0 0 0 0 0 0 0 0 0 0 0 0 0 0 0 0 0 0 0 0 0 0 0 0 0 0 0 0 0 0 0 0 0 0 0 0 0 0 0 0 0 0 0 0 0 0 0 0 0
0 0 0 0 0 0 0 0 0 0 0 0 0 0 0 0 0 0 0 0 0 0 0 0 0 0 0 -0 0 0 0 0 0 0 0 0 0 0 0 0 0 0 0 0 0 0 0 0 0 0 0 0 0 0
0 0 0 0 0 0 0 0 0 0 0 0 0 0 0 0 0 0 0 0 0 0 0 0 0 1 0 0 0 0 0 0 0 0 0 0 0 0 0 0 0 0 0 0 0 0 0 0 0 0 0 0 0 0
0 0 0 0 0 0 0 0 0 0 0 0 0 0 0 0 0 0 0 0 0 0 0 0 0 0 0 0 0 0 0 0 0 0 0 0 0 0 0 0 0 0 0 0 0 0 0 0 0 0 0 0 0 0
0 0 0 0 0 0 0 0 0 0 0 0 0 0 0 0 0 0 0 0 0 0 0 0 0 0 0 0 0 0 0 0 0 0 0 0 0 0 0 0 0 0 0 0 0 0 0 0 0 0 0 0 0 0
0 0 0 0 0 0 0 0 0 0 -0 0 0 0 0 0 0 0 0 0 0 0 0 0 0 0 0 0 0 0 0 0 0 0 0 0 0 1 1 0 0 0 0 0 0 0 0 0 0 0 0 0 0 0
0 0 0 0 0 0 0 0 0 0 0 0 0 0 0 0 0 -0 -0 0 0 0 0 0 0 0 0 0 -0 0 0 0 0 0 0 0 0 0 0 0 0 0 0 0 0 0 0 0 0 0 0 0 0 0
0 0 0 0 0 -0 0 0 0 0 0 0 0 0 -0 0 0 0 0 0 0 0 0 0 0 0 0 0 0 0 0 0 0 0 0 1 0 1 0 0 0 0 0 0 0 0 0 0 0 0 0 0 0 0
0 0 0 0 0 0 0 0 0 0 0 0 0 0 0 0 0 0 0 0 0 0 0 0 0 0 0 0 0 0 0 0 0 0 0 0 0 0 0 0 0 0 0 0 0 0 0 0 0 0 0 0 0 0
0 0 0 0 0 0 0 0 0 0 0 0 0 0 -0 0 0 0 0 0 0 0 0 0 0 0 0 0 0 0 0 0 0 0 0 1 0 0 0 0 0 0 0 0 0 0 0 0 0 0 0 0 0 0
0 0 0 0 0 0 0 -0 0 0 0 0 -0 0 -0 -0 0 0 0 0 0 0 0 0 0 0 0 0 0 0 0 0 0 0 0 0 0 0 0 0 0 0 0 0 0 0 0 0 0 0 0 0 0 0
0 0 0 0 0 0 0 0 0 0 0 0 -0 0 0 0 0 0 0 0 0 0 0 0 0 0 0 0 0 0 0 0 0 0 0 0 0 0 0 0 0 0 0 0 0 0 0 0 0 0 0 0 0 0
0 0 0 0 0 0 0 0 0 0 0 0 0 0 0 0 0 0 0 0 0 0 0 0 0 0 0 0 -0 0 0 0 0 0 0 0 0 0 0 0 0 0 0 0 0 0 0 0 0 0 0 0 0 0
0 0 0 0 0 0 0 0 0 0 0 0 0 0 0 0 0 0 0 0 0 0 0 -0 0 0 0 0 0 0 0 0 -0 0 -0 0 0 0 0 0 0 0 0 0 0 0 0 0 0 0 0 0 0 0
0 0 0 0 0 0 0 0 0 0 0 0 0 0 0 -0 -0 0 0 0 0 0 0 0 0 0 0 0 0 0 -0 0 0 0 0 0 0 0 0 0 0 0 0 0 0 0 0 0 0 0 0 0 0 0
0 0 0 0 0 0 0 0 0 0 0 0 0 -0 0 0 0 0 -0 -0 -0 -0 -0 0 0 0 0 -0 -0 0 0 0 0 0 0 0 0 0 0 0 0 0 0 0 0 0 0 0 0 0 0 0 0 0
0 0 0 0 -0 0 0 0 0 0 0 0 0 0 0 0 0 0 0 0 0 0 0 -0 -0 0 0 0 0 1 0 0 0 0 0 0 0 0 0 0 0 0 0 0 0 0 0 0 0 0 0 0 0 0
0 0 0 0 0 0 0 0 0 0 0 0 0 0 0 0 0 0 0 0 0 0 0 0 0 0 0 0 0 0 0 0 0 0 0 0 0 0 0 0 -0 0 0 0 0 0 0 0 0 0 0 0 0 0
0 0 0 0 0 0 0 0 0 0 0 0 0 0 0 0 0 0 0 0 0 0 0 0 0 0 0 -0 0 0 0 0 0 0 0 0 0 0 0 0 0 0 0 0 0 0 0 0 0 0 0 0 0 0
0 0 0 0 0 0 0 0 0 0 0 0 0 0 -0 -0 0 0 0 0 0 0 0 -0 0 0 -0 0 0 0 0 0 0 0 0 0 0 0 0 0 0 0 0 0 0 0 0 0 0 0 0 0 0 0
0 0 0 0 0 0 0 0 0 0 0 0 0 0 0 0 -0 -0 0 -0 0 0 -0 0 -0 -0 0 0 0 0 0 0 0 0 0 0 0 0 0 0 0 0 0 0 0 0 0 0 0 0 0 0 0 0
0 0 0 0 0 0 0 0 -0 -0 -0 0 0 0 0 0 0 0 0 0 0 -0 -0 0 -0 -0 -0 0 0 0 0 0 0 0 0 0 0 0 0 0 0 0 0 0 0 0 0 0 0 0 0 0 0 0
0 0 0 0 0 0 -0 0 0 0 0 0 0 0 0 0 0 -0 -0 -0 0 0 -0 -0 0 0 0 0 0 0 0 0 0 0 0 0 0 0 0 0 0 0 0 0 0 0 0 0 0 0 0 0 0 -0
0 0 0 0 0 0 0 0 0 0 0 0 0 0 0 0 0 -0 -0 -0 -0 0 0 0 0 0 0 0 0 0 0 0 0 0 0 0 0 0 0 0 0 -0 -0 0 0 0 0 0 0 0 0 0 0 -0
0 0 0 0 0 0 0 0 0 0 -0 0 -0 -0 -0 0 0 0 -0 0 0 0 0 0 0 0 0 0 0 0 0 0 0 0 0 0 0 0 0 -0 -0 0 0 0 0 0 0 0 0 0 0 0 0 0
0 0 0 0 0 0 0 0 0 -0 -0 0 0 0 0 0 0 0 0 0 0 0 0 0 0 0 0 0 0 0 0 0 0 0 0 0 0 0 0 0 0 0 0 0 0 0 0 0 0 0 0 -0 0 0
Wind_Speed_500mb
36 37 35 34 33 33 35 37 37 37 40 38 32 30 25 29 25 21 15 17 13 11 48 35 37 36 14 10 5 11 1 8 4 0 6 8 6 11 4 8 5 7 7 7 8 5 5 9 21 7 11 16 18 50
38 35 34 34 35 36 36 37 38 38 40 36 29 29 25 28 27 21 17 13 20 27 33 25 22 23 3 12 11 4 5 5 3 7 2 1 6 8 13 7 13 3 7 2 12 12 25 15 10 5 24 27 23 29
37 33 34 33 35 36 36 36 36 37 39 28 25 25 26 29 28 26 22 5 8 20 33 42 29 7 10 5 6 11 11 15 16 7 5 5 6 4 4 9 4 8 8 9 9 6 16 12 17 29 28 22 22 20
36 34 34 34 35 36 36 36 35 35 27 24 21 20 25 27 27 28 27 17 6 12 9 17 24 43 29 29 20 16 10 2 9 7 5 3 3 3 2 4 7 7 6 4 8 18 25 18 18 15 16 15 17 14
37 34 34 34 34 33 35 35 37 23 18 16 18 18 24 26 26 26 27 32 15 4 10 27 37 26 48 29 17 12 12 4 6 7 3 6 5 5 1 6 5 5 8 7 5 31 21 30 27 24 20 7 11 13
40 32 31 32 31 31 33 28 26 15 14 17 16 18 20 24 22 12 5 17 30 19 10 7 12 20 30 30 19 14 12 12 20 8 10 6 7 6 3 2 17 9 11 24 17 23 22 21 26 20 17 12 14 15
34 30 31 32 30 30 30 21 19 16 14 15 12 17 21 22 25 22 8 9 29 23 8 10 8 18 34 32 28 19 19 14 18 26 8 4 5 6 4 4 12 4 17 22 22 26 21 27 28 20 14 21 21 15
32 33 32 28 28 27 26 15 15 17 16 14 9 13 16 20 24 34 10 8 26 22 8 6 5 2 17 10 17 29 20 17 8 4 10 7 10 5 3 11 14 6 23 19 13 12 10 11 22 21 16 22 13 9
32 30 25 24 23 22 20 14 17 20 22 15 11 12 11 12 12 14 17 9 11 18 6 8 4 7 47 39 30 23 18 7 16 10 9 4 5 6 11 7 9 16 15 13 13 11 12 9 25 29 21 16 8 12
26 23 23 21 19 18 17 12 14 7 6 18 22 6 6 11 8 19 13 8 9 12 12 9 12 3 1 9 17 12 16 6 2 8 9 6 7 16 22 18 11 8 13 14 20 16 15 7 37 33 30 25 16 23
23 22 21 19 16 15 16 11 8 6 12 23 6 4 4 25 14 7 11 12 16 9 14 19 27 7 8 6 3 13 2 4 3 7 7 6 6 10 28 23 26 19 11 14 13 22 18 25 37 32 27 26 24 21
21 18 17 15 15 15 16 11 13 14 21 11 6 5 18 10 11 8 8 9 11 11 17 40 21 16 9 5 5 10 8 2 6 10 8 6 8 24 29 23 19 25 26 19 23 23 21 31 37 37 36 26 15 21
16 15 13 14 14 10 10 10 17 20 24 10 2 3 2 6 3 10 12 7 7 12 20 30 15 15 16 10 9 6 7 10 24 6 6 9 15 46 38 30 25 21 25 20 29 31 33 39 37 33 32 31 29 26
18 16 14 12 11 8 5 7 13 21 28 6 7 4 7 9 10 10 10 10 29 16 30 39 35 17 13 11 27 6 11 10 9 13 10 10 49 49 41 34 31 27 26 24 28 38 44 43 41 41 36 27 22 17
16 15 15 10 15 13 5 5 15 31 14 7 8 8 13 22 26 25 20 19 24 24 16 20 7 14 4 5 6 4 6 10 7 9 9 38 59 54 45 38 35 35 34 35 45 54 53 47 44 33 26 22 22 17
15 17 16 9 17 14 6 4 24 12 10 6 10 9 21 21 20 22 8 32 21 13 20 19 5 6 4 0 3 11 7 7 6 6 29 59 61 49 44 41 40 40 42 56 57 53 42 37 34 32 25 14 9 9
16 11 10 9 20 16 9 19 13 7 8 9 15 30 32 24 25 34 26 27 9 5 4 6 5 6 7 4 7 7 10 12 27 45 39 50 46 45 42 39 39 45 50 50 47 41 35 25 22 23 22 18 18 19
15 9 10 13 33 24 23 12 8 15 17 27 15 26 35 27 34 22 24 19 15 13 8 7 7 6 7 7 6 10 14 36 51 49 46 40 38 39 41 40 50 53 49 44 43 41 34 29 33 30 29 27 23 15
12 9 8 23 35 20 10 10 12 10 22 24 41 35 37 53 57 51 20 20 12 9 30 17 9 7 10 25 11 26 23 28 62 43 31 27 27 33 41 42 46 49 44 38 42 41 39 40 34 27 30 26 31 33
14 13 15 30 38 13 6 10 10 11 11 13 27 35 38 26 19 35 37 35 40 18 11 7 8 13 12 28 28 15 18 19 40 41 38 36 37 44 44 46 47 41 43 46 44 35 33 32 33 28 37 29 20 23
9 13 19 31 26 12 9 8 13 16 16 13 25 21 16 17 19 26 20 53 28 15 14 30 31 31 28 37 23 13 21 13 38 57 56 52 48 45 48 49 43 44 40 36 34 37 36 40 29 33 36 35 33 25
4 16 12 32 9 9 13 17 14 15 9 21 28 19 10 12 19 29 26 11 10 21 35 35 42 46 35 13 28 30 36 11 14 31 51 50 51 55 58 54 51 47 44 43 37 41 38 34 29 38 38 28 27 28
15 19 9 16 11 10 16 12 10 9 6 7 10 16 9 9 12 20 8 15 30 36 34 29 20 31 41 33 33 42 46 32 33 15 27 41 39 47 59 58 53 51 46 44 40 42 48 40 35 38 33 29 33 31
9 5 7 11 18 9 11 9 11 8 8 13 7 6 6 7 6 1 7 19 32 36 41 44 39 37 28 29 35 26 37 43 32 23 30 44 46 49 54 50 54 47 45 37 44 39 48 40 44 37 40 34 30 31
6 8 8 9 11 9 8 7 8 10 8 7 7 7 4 8 5 7 7 5 5 11 18 23 26 35 36 34 28 42 46 44 40 31 43 51 52 45 47 45 44 46 45 40 45 41 41 38 42 41 34 31 31 28
6 9 9 9 9 9 6 5 5 9 9 6 3 4 2 2 5 1 6 24 12 10 9 14 21 34 28 24 17 29 27 25 41 37 45 53 48 50 56 54 46 42 39 43 43 43 36 41 42 39 38 38 35 25
6 10 20 17 13 4 9 14 7 4 3 6 5 5 3 5 7 6 9 13 15 21 10 26 38 29 31 14 31 42 25 19 25 27 36 49 38 44 49 53 49 46 39 47 40 38 38 43 38 33 33 36 33 27
13 10 10 12 17 14 9 5 1 5 3 4 7 4 6 4 3 8 7 15 21 19 30 24 22 12 13 14 14 13 17 16 20 23 34 34 23 29 42 37 31 25 39 42 43 39 40 40 38 36 32 36 32 37
13 11 19 23 16 10 2 7 2 6 3 1 5 5 8 7 13 10 13 27 23 9 16 15 21 8 5 7 10 15 19 20 22 28 28 33 33 31 32 32 35 34 31 45 44 42 41 42 39 37 34 33 30 28
25 22 18 16 6 1 12 7 7 13 10 7 11 17 6 19 5 15 16 21 18 14 20 17 15 8 5 9 5 14 14 19 23 29 31 26 22 26 22 28 27 28 45 39 42 40 39 40 36 34 37 35 33 29
9 11 10 17 6 13 22 26 26 14 9 15 30 33 31 5 21 35 31 27 25 23 14 16 16 14 4 5 7 21 34 29 28 31 36 15 24 23 20 33 35 43 42 42 37 42 38 38 35 33 29 28 29 31
16 14 10 10 18 17 18 12 18 26 15 7 11 23 11 7 8 11 24 25 25 22 20 13 16 20 16 15 16 16 19 17 15 8 15 8 31 33 27 31 35 37 41 38 37 35 36 35 38 38 40 39 36 34
19 15 14 16 11 8 13 8 12 11 15 20 21 19 16 17 12 9 12 28 30 22 18 16 14 16 14 9 14 19 22 19 6 14 12 19 35 33 26 24 25 24 23 28 28 30 32 38 40 42 42 40 39 36
Wind_Direction_500mb
305 309 310 306 305 305 304 303 300 300 298 297 286 268 249 238 244 250 225 209 244 274 281 292 325 342 40 16 105 159 183 237 223 86 51 167 157 202 179 237 268 149 136 189 92 89 281 336 295 243 166 69 62 111
302 308 309 310 310 310 307 304 301 300 300 295 283 263 236 225 236 244 231 194 219 240 266 285 302 332 178 43 23 318 140 173 357 36 191 294 146 161 189 237 163 81 147 105 129 209 237 201 5 96 103 70 44 56
300 302 309 312 313 310 309 307 302 301 301 295 286 256 225 216 226 235 225 185 220 263 296 272 265 281 242 206 290 320 20 14 89 71 293 286 56 93 98 293 186 120 104 131 88 247 194 170 89 80 86 73 45 44
294 297 305 306 309 312 313 310 306 301 296 295 290 252 221 218 221 232 232 197 255 293 268 277 246 263 237 237 241 238 339 5 60 16 268 283 25 9 74 179 101 131 110 84 110 178 133 136 127 108 66 52 38 39
280 289 300 303 304 310 313 311 313 294 296 295 294 244 221 217 219 227 236 210 210 284 320 299 281 237 210 213 205 205 239 274 248 220 217 258 87 69 71 66 339 25 167 140 183 161 138 153 141 133 126 123 66 54
284 274 293 298 300 308 314 314 315 292 289 306 296 228 217 222 210 198 241 227 206 228 287 289 302 190 190 196 179 201 207 239 261 282 268 123 117 119 102 247 211 126 77 106 118 139 114 142 159 148 140 149 120 98
272 277 285 288 294 305 311 310 310 297 283 298 278 211 204 213 210 184 192 171 194 197 240 271 241 210 180 194 182 206 215 252 229 260 240 115 122 100 100 177 358 93 102 125 115 118 139 143 139 152 147 152 125 133
264 275 273 278 287 303 306 288 289 285 286 287 244 209 203 209 226 221 115 133 180 185 254 269 257 319 189 175 182 213 188 222 253 269 288 109 132 165 168 247 276 166 133 130 135 138 165 145 149 161 149 129 134 156
261 256 262 270 281 302 308 292 280 273 269 262 194 182 190 205 200 241 210 223 221 199 258 246 191 191 187 224 200 192 196 189 228 193 228 162 194 192 193 225 326 166 137 141 158 177 202 211 168 147 136 124 142 159
236 246 254 260 273 292 314 289 282 287 227 162 156 155 203 199 159 168 170 203 188 212 235 248 271 197 107 194 198 187 189 236 213 218 221 153 209 147 161 185 204 117 171 181 178 182 204 166 148 145 149 150 125 107
238 246 243 249 265 288 306 283 244 183 171 154 173 235 159 158 152 200 204 202 192 225 220 225 246 162 195 141 292 12 237 195 223 221 155 207 217 225 238 214 212 215 179 192 203 175 171 175 159 141 133 142 133 130
242 246 236 238 260 284 299 268 219 193 169 182 248 212 143 185 213 224 200 206 196 213 199 193 181 141 154 225 79 103 270 225 239 192 178 219 204 180 171 176 179 204 195 194 179 156 141 156 163 159 151 140 154 158
245 240 226 239 252 276 294 268 220 203 183 192 268 160 259 244 138 220 206 203 212 221 190 183 169 146 114 189 53 203 93 247 312 205 196 207 169 163 163 165 174 174 173 187 161 155 158 158 165 157 149 155 163 151
233 223 216 244 233 229 297 306 208 178 166 217 190 178 226 223 224 212 233 227 235 292 214 191 160 148 165 149 204 214 181 177 213 184 210 176 163 163 163 166 164 167 175 180 170 165 162 152 147 151 145 149 140 146
225 213 218 236 215 208 263 327 175 167 178 220 191 220 229 243 284 284 308 268 275 231 200 176 164 109 46 298 181 182 228 214 203 198 194 172 167 162 163 169 173 178 181 178 161 153 151 154 150 145 148 147 154 160
218 216 222 213 198 201 243 245 171 153 177 232 238 252 258 272 285 272 266 273 267 256 234 173 73 104 80 155 272 220 210 226 210 108 131 154 155 158 166 171 171 171 162 157 160 162 164 168 174 170 167 180 204 176
206 187 221 214 188 181 164 144 163 195 212 233 242 235 249 279 269 271 300 321 324 167 80 57 146 92 111 213 229 234 236 234 112 124 135 152 154 162 170 171 177 174 163 162 167 172 169 179 193 200 203 173 193 181
186 204 230 206 172 171 182 199 220 209 231 230 244 241 218 227 242 267 273 223 178 93 25 330 121 172 161 250 216 237 238 134 141 151 164 162 161 166 171 181 170 165 171 177 177 174 171 181 177 174 178 187 190 195
186 203 198 181 170 161 191 226 240 262 237 240 234 245 239 239 245 244 191 173 145 173 150 202 229 200 175 243 22 26 93 145 137 145 164 175 168 170 177 186 178 176 178 178 175 171 173 182 184 188 193 202 205 211
212 221 212 185 172 169 236 251 230 265 273 261 272 258 274 272 239 219 198 171 173 164 171 166 207 228 268 273 315 314 317 109 170 180 177 192 197 186 182 179 174 175 174 173 173 178 189 193 196 201 194 198 196 194
203 189 183 181 181 215 252 240 235 251 270 272 278 307 294 262 295 284 287 179 173 207 195 226 232 213 241 279 258 306 275 247 211 165 174 178 185 186 185 185 183 181 179 187 189 190 199 194 201 205 194 183 199 184
167 166 153 180 211 226 251 237 245 312 255 258 275 272 276 268 257 260 283 274 233 228 214 224 226 200 195 172 244 225 241 235 125 155 170 178 179 191 190 185 183 187 189 191 194 198 198 196 196 202 200 215 218 195
161 165 164 190 224 231 262 239 236 229 260 282 256 231 215 224 235 263 251 253 254 256 257 260 254 190 185 192 197 220 216 219 231 196 204 195 200 198 193 194 194 191 194 197 198 200 202 201 200 202 199 199 188 202
171 214 228 207 205 253 243 222 216 242 243 240 241 236 220 214 252 286 251 245 250 249 242 246 245 249 233 226 221 203 192 197 213 227 220 190 188 199 203 198 199 198 199 198 200 200 197 192 193 198 200 200 205 206
218 240 219 263 227 228 247 214 211 210 233 218 240 238 204 189 208 225 238 238 12 312 216 232 246 231 232 236 249 231 227 220 210 229 197 196 204 201 197 198 203 208 197 195 191 187 188 190 195 200 199 196 208 216
229 225 194 239 215 212 250 266 212 220 270 235 234 322 217 217 263 281 38 343 343 349 315 274 238 228 245 254 261 270 232 214 229 229 208 209 205 199 192 198 211 194 199 196 190 185 189 191 195 200 211 218 223 237
253 247 218 235 252 296 295 283 327 307 325 23 357 314 246 239 27 42 347 8 252 338 311 277 267 212 235 231 249 254 268 241 231 209 228 203 207 208 199 201 201 193 192 186 186 188 192 193 194 198 206 214 223 231
248 281 255 266 260 248 254 264 23 353 322 10 299 288 16 42 308 275 184 210 335 326 345 23 81 180 202 221 240 224 198 185 174 175 189 191 196 181 182 193 199 190 191 186 187 191 195 199 198 203 208 217 235 218
239 267 279 262 269 256 56 64 223 240 218 176 317 39 19 315 248 266 6 359 33 151 328 226 19 353 205 181 179 186 197 201 203 183 179 164 171 179 182 198 208 200 198 206 195 198 201 200 201 201 210 218 222 229
260 241 264 281 254 18 136 136 263 236 238 161 61 31 1 326 307 13 342 2 13 91 65 62 29 355 147 128 102 170 191 169 170 182 183 177 193 204 196 179 156 167 185 198 196 191 193 195 195 198 210 219 221 235
282 296 260 266 259 262 225 236 226 187 127 193 205 216 228 282 43 42 31 21 23 13 24 33 47 41 74 207 171 151 121 128 142 135 125 87 270 246 251 221 193 182 196 202 200 206 196 194 203 212 220 230 235 235
228 237 250 266 257 274 298 254 184 173 173 220 204 202 173 160 98 47 29 30 33 35 35 39 45 51 76 94 132 148 156 158 184 255 286 289 196 156 155 170 180 187 191 195 198 195 199 208 210 216 225 233 238 236
229 223 220 262 281 237 235 242 83 78 67 68 61 61 66 82 78 68 47 23 43 49 51 58 69 87 81 113 142 150 156 156 71 164 205 129 137 144 158 192 186 177 194 204 208 213 213 215 225 234 239 240 233 238
Wind_Speed_850mb
36 37 35 34 33 33 35 37 37 37 40 38 32 30 25 29 25 21 15 17 13 11 48 35 37 36 14 10 5 11 1 8 4 0 6 8 6 11 4 8 5 7 7 7 8 5 5 9 21 7 11 16 18 50
38 35 34 34 35 36 36 37 38 38 40 36 29 29 25 28 27 21 17 13 20 27 33 25 22 23 3 12 11 4 5 5 3 7 2 1 6 8 13 7 13 3 7 2 12 12 25 15 10 5 24 27 23 29
37 33 34 33 35 36 36 36 36 37 39 28 25 25 26 29 28 26 22 5 8 20 33 42 29 7 10 5 6 11 11 15 16 7 5 5 6 4 4 9 4 8 8 9 9 6 16 12 17 29 28 22 22 20
36 34 34 34 35 36 36 36 35 35 27 24 21 20 25 27 27 28 27 17 6 12 9 17 24 43 29 29 20 16 10 2 9 7 5 3 3 3 2 4 7 7 6 4 8 18 25 18 18 15 16 15 17 14
37 34 34 34 34 33 35 35 37 23 18 16 18 18 24 26 26 26 27 32 15 4 10 27 37 26 48 29 17 12 12 4 6 7 3 6 5 5 1 6 5 5 8 7 5 31 21 30 27 24 20 7 11 13
40 32 31 32 31 31 33 28 26 15 14 17 16 18 20 24 22 12 5 17 30 19 10 7 12 20 30 30 19 14 12 12 20 8 10 6 7 6 3 2 17 9 11 24 17 23 22 21 26 20 17 12 14 15
34 30 31 32 30 30 30 21 19 16 14 15 12 17 21 22 25 22 8 9 29 23 8 10 8 18 34 32 28 19 19 14 18 26 8 4 5 6 4 4 12 4 17 22 22 26 21 27 28 20 14 21 21 15
32 33 32 28 28 27 26 15 15 17 16 14 9 13 16 20 24 34 10 8 26 22 8 6 5 2 17 10 17 29 20 17 8 4 10 7 10 5 3 11 14 6 23 19 13 12 10 11 22 21 16 22 13 9
32 30 25 24 23 22 20 14 17 20 22 15 11 12 11 12 12 14 17 9 11 18 6 8 4 7 47 39 30 23 18 7 16 10 9 4 5 6 11 7 9 16 15 13 13 11 12 9 25 29 21 16 8 12
26 23 23 21 19 18 17 12 14 7 6 18 22 6 6 11 8 19 13 8 9 12 12 9 12 3 1 9 17 12 16 6 2 8 9 6 7 16 22 18 11 8 13 14 20 16 15 7 37 33 30 25 16 23
23 22 21 19 16 15 16 11 8 6 12 23 6 4 4 25 14 7 11 12 16 9 14 19 27 7 8 6 3 13 2 4 3 7 7 6 6 10 28 23 26 19 11 14 13 22 18 25 37 32 27 26 24 21
21 18 17 15 15 15 16 11 13 14 21 11 6 5 18 10 11 8 8 9 11 11 17 40 21 16 9 5 5 10 8 2 6 10 8 6 8 24 29 23 19 25 26 19 23 23 21 31 37 37 36 26 15 21
16 15 13 14 14 10 10 10 17 20 24 10 2 3 2 6 3 10 12 7 7 12 20 30 15 15 16 10 9 6 7 10 24 6 6 9 15 46 38 30 25 21 25 20 29 31 33 39 37 33 32 31 29 26
18 16 14 12 11 8 5 7 13 21 28 6 7 4 7 9 10 10 10 10 29 16 30 39 35 17 13 11 27 6 11 10 9 13 10 10 49 49 41 34 31 27 26 24 28 38 44 43 41 41 36 27 22 17
16 15 15 10 15 13 5 5 15 31 14 7 8 8 13 22 26 25 20 19 24 24 16 20 7 14 4 5 6 4 6 10 7 9 9 38 59 54 45 38 35 35 34 35 45 54 53 47 44 33 26 22 22 17
15 17 16 9 17 14 6 4 24 12 10 6 10 9 21 21 20 22 8 32 21 13 20 19 5 6 4 0 3 11 7 7 6 6 29 59 61 49 44 41 40 40 42 56 57 53 42 37 34 32 25 14 9 9
16 11 10 9 20 16 9 19 13 7 8 9 15 30 32 24 25 34 26 27 9 5 4 6 5 6 7 4 7 7 10 12 27 45 39 50 46 45 42 39 39 45 50 50 47 41 35 25 22 23 22 18 18 19
15 9 10 13 33 24 23 12 8 15 17 27 15 26 35 27 34 22 24 19 15 13 8 7 7 6 7 7 6 10 14 36 51 49 46 40 38 39 41 40 50 53 49 44 43 41 34 29 33 30 29 27 23 15
12 9 8 23 35 20 10 10 12 10 22 24 41 35 37 53 57 51 20 20 12 9 30 17 9 7 10 25 11 26 23 28 62 43 31 27 27 33 41 42 46 49 44 38 42 41 39 40 34 27 30 26 31 33
14 13 15 30 38 13 6 10 10 11 11 13 27 35 38 26 19 35 37 35 40 18 11 7 8 13 12 28 28 15 18 19 40 41 38 36 37 44 44 46 47 41 43 46 44 35 33 32 33 28 37 29 20 23
9 13 19 31 26 12 9 8 13 16 16 13 25 21 16 17 19 26 20 53 28 15 14 30 31 31 28 37 23 13 21 13 38 57 56 52 48 45 48 49 43 44 40 36 34 37 36 40 29 33 36 35 33 25
4 16 12 32 9 9 13 17 14 15 9 21 28 19 10 12 19 29 26 11 10 21 35 35 42 46 35 13 28 30 36 11 14 31 51 50 51 55 58 54 51 47 44 43 37 41 38 34 29 38 38 28 27 28
15 19 9 16 11 10 16 12 10 9 6 7 10 16 9 9 12 20 8 15 30 36 34 29 20 31 41 33 33 42 46 32 33 15 27 41 39 47 59 58 53 51 46 44 40 42 48 40 35 38 33 29 33 31
9 5 7 11 18 9 11 9 11 8 8 13 7 6 6 7 6 1 7 19 32 36 41 44 39 37 28 29 35 26 37 43 32 23 30 44 46 49 54 50 54 47 45 37 44 39 48 40 44 37 40 34 30 31
6 8 8 9 11 9 8 7 8 10 8 7 7 7 4 8 5 7 7 5 5 11 18 23 26 35 36 34 28 42 46 44 40 31 43 51 52 45 47 45 44 46 45 40 45 41 41 38 42 41 34 31 31 28
6 9 9 9 9 9 6 5 5 9 9 6 3 4 2 2 5 1 6 24 12 10 9 14 21 34 28 24 17 29 27 25 41 37 45 53 48 50 56 54 46 42 39 43 43 43 36 41 42 39 38 38 35 25
6 10 20 17 13 4 9 14 7 4 3 6 5 5 3 5 7 6 9 13 15 21 10 26 38 29 31 14 31 42 25 19 25 27 36 49 38 44 49 53 49 46 39 47 40 38 38 43 38 33 33 36 33 27
13 10 10 12 17 14 9 5 1 5 3 4 7 4 6 4 3 8 7 15 21 19 30 24 22 12 13 14 14 13 17 16 20 23 34 34 23 29 42 37 31 25 39 42 43 39 40 40 38 36 32 36 32 37
13 11 19 23 16 10 2 7 2 6 3 1 5 5 8 7 13 10 13 27 23 9 16 15 21 8 5 7 10 15 19 20 22 28 28 33 33 31 32 32 35 34 31 45 44 42 41 42 39 37 34 33 30 28
25 22 18 16 6 1 12 7 7 13 10 7 11 17 6 19 5 15 16 21 18 14 20 17 15 8 5 9 5 14 14 19 23 29 31 26 22 26 22 28 27 28 45 39 42 40 39 40 36 34 37 35 33 29
9 11 10 17 6 13 22 26 26 14 9 15 30 33 31 5 21 35 31 27 25 23 14 16 16 14 4 5 7 21 34 29 28 31 36 15 24 23 20 33 35 43 42 42 37 42 38 38 35 33 29 28 29 31
16 14 10 10 18 17 18 12 18 26 15 7 11 23 11 7 8 11 24 25 25 22 20 13 16 20 16 15 16 16 19 17 15 8 15 8 31 33 27 31 35 37 41 38 37 35 36 35 38 38 40 39 36 34
19 15 14 16 11 8 13 8 12 11 15 20 21 19 16 17 12 9 12 28 30 22 18 16 14 16 14 9 14 19 22 19 6 14 12 19 35 33 26 24 25 24 23 28 28 30 32 38 40 42 42 40 39 36
Wind_Direction_850mb
305 309 310 306 305 305 304 303 300 300 298 297 286 268 249 238 244 250 225 209 244 274 281 292 325 342 40 16 105 159 183 237 223 86 51 167 157 202 179 237 268 149 136 189 92 89 281 336 295 243 166 69 62 111
302 308 309 310 310 310 307 304 301 300 300 295 283 263 236 225 236 244 231 194 219 240 266 285 302 332 178 43 23 318 140 173 357 36 191 294 146 161 189 237 163 81 147 105 129 209 237 201 5 96 103 70 44 56
300 302 309 312 313 310 309 307 302 301 301 295 286 256 225 216 226 235 225 185 220 263 296 272 265 281 242 206 290 320 20 14 89 71 293 286 56 93 98 293 186 120 104 131 88 247 194 170 89 80 86 73 45 44
294 297 305 306 309 312 313 310 306 301 296 295 290 252 221 218 221 232 232 197 255 293 268 277 246 263 237 237 241 238 339 5 60 16 268 283 25 9 74 179 101 131 110 84 110 178 133 136 127 108 66 52 38 39
280 289 300 303 304 310 313 311 313 294 296 295 294 244 221 217 219 227 236 210 210 284 320 299 281 237 210 213 205 205 239 274 248 220 217 258 87 69 71 66 339 25 167 140 183 161 138 153 141 133 126 123 66 54
284 274 293 298 300 308 314 314 315 292 289 306 296 228 217 222 210 198 241 227 206 228 287 289 302 190 190 196 179 201 207 239 261 282 268 123 117 119 102 247 211 126 77 106 118 139 114 142 159 148 140 149 120 98
272 277 285 288 294 305 311 310 310 297 283 298 278 211 204 213 210 184 192 171 194 197 240 271 241 210 180 194 182 206 215 252 229 260 240 115 122 100 100 177 358 93 102 125 115 118 139 143 139 152 147 152 125 133
264 275 273 278 287 303 306 288 289 285 286 287 244 209 203 209 226 221 115 133 180 185 254 269 257 319 189 175 182 213 188 222 253 269 288 109 132 165 168 247 276 166 133 130 135 138 165 145 149 161 149 129 134 156
261 256 262 270 281 302 308 292 280 273 269 262 194 182 190 205 200 241 210 223 221 199 258 246 191 191 187 224 200 192 196 189 228 193 228 162 194 192 193 225 326 166 137 141 158 177 202 211 168 147 136 124 142 159
236 246 254 260 273 292 314 289 282 287 227 162 156 155 203 199 159 168 170 203 188 212 235 248 271 197 107 194 198 187 189 236 213 218 221 153 209 147 161 185 204 117 171 181 178 182 204 166 148 145 149 150 125 107
238 246 243 249 265 288 306 283 244 183 171 154 173 235 159 158 152 200 204 202 192 225 220 225 246 162 195 141 292 12 237 195 223 221 155 207 217 225 238 214 212 215 179 192 203 175 171 175 159 141 133 142 133 130
242 246 236 238 260 284 299 268 219 193 169 182 248 212 143 185 213 224 200 206 196 213 199 193 181 141 154 225 79 103 270 225 239 192 178 219 204 180 171 176 179 204 195 194 179 156 141 156 163 159 151 140 154 158
245 240 226 239 252 276 294 268 220 203 183 192 268 160 259 244 138 220 206 203 212 221 190 183 169 146 114 189 53 203 93 247 312 205 196 207 169 163 163 165 174 174 173 187 161 155 158 158 165 157 149 155 163 151
233 223 216 244 233 229 297 306 208 178 166 217 190 178 226 223 224 212 233 227 235 292 214 191 160 148 165 149 204 214 181 177 213 184 210 176 163 163 163 166 164 167 175 180 170 165 162 152 147 151 145 149 140 146
225 213 218 236 215 208 263 327 175 167 178 220 191 220 229 243 284 284 308 268 275 231 200 176 164 109 46 298 181 182 228 214 203 198 194 172 167 162 163 169 173 178 181 178 161 153 151 154 150 145 148 147 154 160
218 216 222 213 198 201 243 245 171 153 177 232 238 252 258 272 285 272 266 273 267 256 234 173 73 104 80 155 272 220 210 226 210 108 131 154 155 158 166 171 171 171 162 157 160 162 164 168 174 170 167 180 204 176
206 187 221 214 188 181 164 144 163 195 212 233 242 235 249 279 269 271 300 321 324 167 80 57 146 92 111 213 229 234 236 234 112 124 135 152 154 162 170 171 177 174 163 162 167 172 169 179 193 200 203 173 193 181
186 204 230 206 172 171 182 199 220 209 231 230 244 241 218 227 242 267 273 223 178 93 25 330 121 172 161 250 216 237 238 134 141 151 164 162 161 166 171 181 170 165 171 177 177 174 171 181 177 174 178 187 190 195
186 203 198 181 170 161 191 226 240 262 237 240 234 245 239 239 245 244 191 173 145 173 150 202 229 200 175 243 22 26 93 145 137 145 164 175 168 170 177 186 178 176 178 178 175 171 173 182 184 188 193 202 205 211
212 221 212 185 172 169 236 251 230 265 273 261 272 258 274 272 239 219 198 171 173 164 171 166 207 228 268 273 315 314 317 109 170 180 177 192 197 186 182 179 174 175 174 173 173 178 189 193 196 201 194 198 196 194
203 189 183 181 181 215 252 240 235 251 270 272 278 307 294 262 295 284 287 179 173 207 195 226 232 213 241 279 258 306 275 247 211 165 174 178 185 186 185 185 183 181 179 187 189 190 199 194 201 205 194 183 199 184
167 166 153 180 211 226 251 237 245 312 255 258 275 272 276 268 257 260 283 274 233 228 214 224 226 200 195 172 244 225 241 235 125 155 170 178 179 191 190 185 183 187 189 191 194 198 198 196 196 202 200 215 218 195
161 165 164 190 224 231 262 239 236 229 260 282 256 231 215 224 235 263 251 253 254 256 257 260 254 190 185 192 197 220 216 219 231 196 204 195 200 198 193 194 194 191 194 197 198 200 202 201 200 202 199 199 188 202
171 214 228 207 205 253 243 222 216 242 243 240 241 236 220 214 252 286 251 245 250 249 242 246 245 249 233 226 221 203 192 197 213 227 220 190 188 199 203 198 199 198 199 198 200 200 197 192 193 198 200 200 205 206
218 240 219 263 227 228 247 214 211 210 233 218 240 238 204 189 208 225 238 238 12 312 216 232 246 231 232 236 249 231 227 220 210 229 197 196 204 201 197 198 203 208 197 195 191 187 188 190 195 200 199 196 208 216
229 225 194 239 215 212 250 266 212 220 270 235 234 322 217 217 263 281 38 343 343 349 315 274 238 228 245 254 261 270 232 214 229 229 208 209 205 199 192 198 211 194 199 196 190 185 189 191 195 200 211 218 223 237
253 247 218 235 252 296 295 283 327 307 325 23 357 314 246 239 27 42 347 8 252 338 311 277 267 212 235 231 249 254 268 241 231 209 228 203 207 208 199 201 201 193 192 186 186 188 192 193 194 198 206 214 223 231
248 281 255 266 260 248 254 264 23 353 322 10 299 288 16 42 308 275 184 210 335 326 345 23 81 180 202 221 240 224 198 185 174 175 189 191 196 181 182 193 199 190 191 186 187 191 195 199 198 203 208 217 235 218
239 267 279 262 269 256 56 64 223 240 218 176 317 39 19 315 248 266 6 359 33 151 328 226 19 353 205 181 179 186 197 201 203 183 179 164 171 179 182 198 208 200 198 206 195 198 201 200 201 201 210 218 222 229
260 241 264 281 254 18 136 136 263 236 238 161 61 31 1 326 307 13 342 2 13 91 65 62 29 355 147 128 102 170 191 169 170 182 183 177 193 204 196 179 156 167 185 198 196 191 193 195 195 198 210 219 221 235
282 296 260 266 259 262 225 236 226 187 127 193 205 216 228 282 43 42 31 21 23 13 24 33 47 41 74 207 171 151 121 128 142 135 125 87 270 246 251 221 193 182 196 202 200 206 196 194 203 212 220 230 235 235
228 237 250 266 257 274 298 254 184 173 173 220 204 202 173 160 98 47 29 30 33 35 35 39 45 51 76 94 132 148 156 158 184 255 286 289 196 156 155 170 180 187 191 195 198 195 199 208 210 216 225 233 238 236
229 223 220 262 281 237 235 242 83 78 67 68 61 61 66 82 78 68 47 23 43 49 51 58 69 87 81 113 142 150 156 156 71 164 205 129 137 144 158 192 186 177 194 204 208 213 213 215 225 234 239 240 233 238